Вернуться в каталог

STARLINK-34191

АктивенСвязьVLEO
NORAD 64176·PAYLOAD·🇺🇸 United States

Запущен May 28, 2025 с Cape Canaveral Space Force Station

Loading…

Ближайшие Пролёты (ближайшие 24 часа)

TLE

СвежийSource: CelesTrak SupGP

Эпоха: Sep 15, 2026, 02:16 UTC

1 64176C 25113G   26258.09493056  .00023393  00000+0  69094-3 0  2583
2 64176  53.1574 287.1919 0001135  93.6296 234.2920 15.34388723    10

Отслеживайте STARLINK-34191 в реальном времени с AllMySat

Download on the App Store